Weather in Bergin

Russia / Republic of Kalmykia     46°50′40″N   46°56′12″E
temp.,
°C
wind,
m/s
gust,
m/s
humid.,
%
clouds,
%
prec.,
mm/h
press.,
hPa
HPBL,
m
15 june, tue
tue1500:00+20nw35855 0.0 1009157
03:00+19nw47880 0.0 1008171
06:00+20nw457470 0.0 1008227
09:00+25wnw5553100 0.0 1008706
12:00+28wnw2244100 0.0 10091262
15:00+30w3337100 0.0 10081801
18:00+30wsw22361 0.0 10081811
21:00+27wsw12462 0.0 100916
16 june, wed
wed1600:00+25ssw11530 0.0 100915
03:00+24sw22561 0.0 101013
06:00+26nne11480 0.0 101192
09:00+30se22390 0.0 10111158
12:00+32ese22310 0.0 10101885
15:00+34e23260 0.0 10092199
18:00+34ne55280 0.0 10091577
21:00+29ne47400 0.0 1010146
17 june, thu
thu1700:00+27ne45440 0.0 100993
03:00+26ne613490 0.0 1009299
06:00+27ene814479 0.0 1009536
09:00+33e9103188 0.0 10091161
12:00+36e672387 0.0 10092242
15:00+38ene762082 0.0 10083056
18:00+35nne892663 0.0 1009982
21:00+30ne91632100 0.0 1010570
18 june, fri
fri1800:00+29ne91641100 0.0 1010621
03:00+27ne101553100 0.0 1012638
06:00+25ne111561100 0.0 1013458
09:00+27ne10114797 0.0 1015860
12:00+30ne91039100 0.0 10151250
15:00+31ne993248 0.0 10161709
18:00+30ne8102421 0.0 10171133
21:00+26ne9142722 0.0 1019540
19 june, sat
sat1900:00+24ne814311 0.0 1021577
03:00+22ne712380 0.0 1022422
06:00+22ene811430 0.0 1023569
09:00+26ene78290 0.0 10231460
12:00+29ene88220 0.0 10221799
15:00+31ene88180 0.0 10212019
18:00+30e78180 0.0 10202076
21:00+26se511290 0.0 1021304